QPF
0.00 0.01 0.01 0.03 0.04 0.01 0.00 0.00 0.00 0.00 0.00 0.00 0.00 0.00 0.00 0.00 0.00 0.00 0.00 0.00 0.00 0.00 0.00 0.00 0.00 0.00 0.00 0.00 0.00 0.00 0.00 0.00
0.02 0.03 0.02 0.01 0.03 0.03 0.01 0.00 0.00 0.00 0.00 0.00 0.00 0.01 0.00 0.01 0.00 0.00 0.00 0.00 0.00 0.00 0.00 0.00 0.00 0.00 0.00 0.00 0.00 0.00 0.00 0.00
0.00 0.00 0.00 0.00 0.01 0.00 0.00 0.00 0.00 0.00 0.00 0.00 0.00 0.01 0.01 0.03 0.02 0.01 0.00 0.00 0.01 0.01 0.00 0.00 0.00 0.00 0.00 0.00 0.00 0.00 0.00 0.00
0.00 0.00 0.00 0.00 0.00 0.00 0.00 0.00 0.00 0.00 0.00 0.00 0.00 0.01 0.01 0.01 0.02 0.02 0.02 0.01 0.01 0.01 0.00 0.00 0.00 0.00 0.00 0.00 0.00 0.00 0.00 0.00
0.00 0.00 0.00 0.00 0.00 0.00 0.00 0.00 0.01 0.02 0.01 0.00 0.01 0.01 0.01 0.01 0.01 0.01 0.02 0.02 0.03 0.02 0.00 0.00 0.00 0.00 0.00 0.00 0.00 0.00 0.00 0.00
0.00 0.00 0.00 0.00 0.00 0.00 0.00 0.00 0.00 0.00 0.00 0.00 0.01 0.01 0.01 0.02 0.02 0.01 0.01 0.02 0.03 0.03 0.01 0.00 0.00 0.00 0.00 0.00 0.00 0.00 0.00 0.00
0.00 0.00 0.00 0.00 0.00 0.00 0.00 0.00 0.00 0.00 0.00 0.00 0.00 0.01 0.04 0.04 0.03 0.03 0.02 0.02 0.03 0.03 0.03 0.01 0.00 0.00 0.00 0.00 0.00 0.00 0.00 0.00
0.00 0.00 0.00 0.00 0.00 0.00 0.00 0.00 0.00 0.00 0.00 0.00 0.00 0.00 0.00 0.01 0.02 0.03 0.04 0.04 0.04 0.03 0.04 0.02 0.00 0.00 0.00 0.00 0.00 0.00 0.00 0.00
0.00 0.00 0.00 0.00 0.00 0.00 0.00 0.00 0.00 0.00 0.00 0.00 0.00 0.00 0.00 0.00 0.00 0.00 0.02 0.03 0.02 0.03 0.04 0.04 0.02 0.01 0.00 0.00 0.00 0.00 0.00 0.00
0.00 0.00 0.00 0.00 0.00 0.00 0.00 0.00 0.00 0.00 0.00 0.00 0.00 0.00 0.00 0.00 0.00 0.00 0.00 0.00 0.01 0.02 0.04 0.04 0.04 0.04 0.01 0.00 0.00 0.00 0.00 0.00
0.00 0.00 0.00 0.00 0.00 0.00 0.00 0.00 0.00 0.00 0.00 0.00 0.00 0.00 0.00 0.00 0.00 0.00 0.00 0.00 0.00 0.00 0.01 0.04 0.06 0.05 0.03 0.01 0.00 0.00 0.00 0.00
0.00 0.00 0.00 0.00 0.00 0.00 0.00 0.00 0.00 0.00 0.00 0.00 0.00 0.00 0.00 0.00 0.00 0.00 0.00 0.00 0.00 0.00 0.00 0.02 0.05 0.07 0.07 0.04 0.02 0.01 0.00 0.00
0.00 0.00 0.00 0.00 0.00 0.00 0.00 0.00 0.00 0.00 0.00 0.00 0.00 0.00 0.00 0.00 0.00 0.00 0.00 0.00 0.00 0.00 0.00 0.00 0.02 0.07 0.14 0.13 0.09 0.05 0.02 0.01
0.00 0.00 0.00 0.00 0.00 0.00 0.00 0.00 0.00 0.00 0.00 0.00 0.00 0.00 0.00 0.00 0.00 0.00 0.00 0.00 0.00 0.00 0.00 0.00 0.00 0.05 0.22 0.35 0.36 0.28 0.20 0.08
0.00 0.00 0.00 0.00 0.00 0.00 0.00 0.00 0.00 0.00 0.00 0.00 0.00 0.00 0.00 0.00 0.00 0.00 0.00 0.00 0.00 0.00 0.00 0.00 0.00 0.00 0.01 0.11 0.21 0.31 0.35 0.25
0.00 0.00 0.00 0.00 0.00 0.00 0.00 0.00 0.00 0.00 0.00 0.00 0.00 0.00 0.00 0.00 0.00 0.00 0.00 0.00 0.00 0.00 0.00 0.00 0.01 0.00 0.00 0.00 0.03 0.10 0.21 0.30
0.00 0.00 0.00 0.00 0.00 0.00 0.00 0.00 0.00 0.00 0.00 0.00 0.00 0.00 0.00 0.00 0.00 0.00 0.00 0.00 0.00 0.00 0.00 0.01 0.01 0.01 0.01 0.01 0.01 0.02 0.04 0.10
0.00 0.00 0.00 0.00 0.00 0.00 0.00 0.00 0.00 0.00 0.00 0.00 0.00 0.00 0.00 0.00 0.00 0.00 0.00 0.00 0.00 0.00 0.00 0.01 0.02 0.01 0.01 0.01 0.01 0.02 0.02 0.05
0.00 0.00 0.00 0.00 0.00 0.00 0.00 0.00 0.00 0.00 0.00 0.00 0.00 0.00 0.00 0.00 0.00 0.00 0.00 0.00 0.01 0.01 0.02 0.03 0.01 0.00 0.00 0.00 0.01 0.01 0.02 0.02
0.00 0.00 0.00 0.00 0.00 0.00 0.00 0.00 0.00 0.00 0.00 0.00 0.00 0.00 0.00 0.00 0.00 0.00 0.00 0.00 0.00 0.02 0.01 0.00 0.00 0.00 0.00 0.00 0.00 0.01 0.02 0.03
MSLP
1018.60 1018.33 1018.06 1017.81 1017.67 1017.41 1017.26 1017.00 1016.80 1016.75 1016.71 1016.76 1016.73 1016.61 1016.53 1016.45 1016.40 1016.45 1016.57 1016.55 1016.47 1016.36 1016.26 1016.27 1016.30 1016.32 1016.33 1016.52 1016.53 1016.50 1016.19 1016.18
1019.50 1019.16 1018.78 1018.38 1018.21 1018.06 1017.61 1017.41 1017.20 1016.96 1016.79 1016.71 1016.70 1016.65 1016.49 1016.32 1016.34 1016.32 1016.35 1016.35 1016.34 1016.33 1016.32 1016.25 1016.34 1016.35 1016.27 1016.31 1016.46 1016.52 1016.09 1016.08
1020.18 1019.88 1019.50 1019.06 1018.69 1018.50 1018.15 1017.77 1017.60 1017.37 1017.09 1016.94 1016.55 1016.55 1016.57 1016.28 1015.99 1016.03 1016.05 1016.08 1016.04 1015.96 1016.11 1016.16 1016.19 1016.25 1016.27 1016.23 1016.36 1015.82 1015.88 1015.82
1021.09 1020.80 1020.53 1020.05 1019.37 1019.18 1018.85 1018.56 1018.27 1018.08 1017.89 1017.60 1017.05 1016.73 1016.59 1016.46 1016.30 1016.20 1015.90 1015.59 1015.55 1015.67 1015.62 1015.76 1016.00 1015.53 1015.51 1015.97 1015.67 1015.53 1015.67 1015.53
1021.84 1021.62 1021.35 1020.93 1020.39 1019.89 1019.60 1019.24 1019.11 1018.82 1018.57 1018.30 1017.98 1017.50 1017.22 1016.73 1016.17 1016.06 1015.71 1015.49 1014.96 1014.98 1015.08 1015.13 1014.88 1015.08 1015.03 1015.10 1015.04 1015.22 1015.07 1015.02
1022.54 1022.18 1021.89 1021.55 1021.10 1020.59 1020.36 1019.91 1019.78 1019.57 1019.30 1018.96 1018.64 1018.00 1017.69 1017.49 1017.27 1016.68 1015.84 1015.33 1015.00 1014.72 1014.65 1014.69 1014.61 1014.44 1014.61 1014.68 1014.63 1014.45 1014.37 1014.50
1023.07 1022.79 1022.40 1022.11 1021.73 1021.36 1020.96 1020.71 1020.43 1020.26 1019.91 1019.73 1019.48 1019.05 1018.55 1018.01 1017.52 1017.04 1016.60 1016.11 1015.32 1014.74 1014.37 1014.21 1014.23 1014.07 1013.74 1013.81 1013.91 1013.90 1013.85 1013.90
1023.75 1023.31 1023.23 1022.87 1022.40 1022.09 1021.63 1021.28 1021.09 1020.80 1020.60 1020.46 1020.15 1019.83 1019.51 1018.90 1018.12 1017.37 1016.83 1016.65 1016.12 1015.67 1014.59 1013.90 1013.80 1013.70 1013.21 1012.95 1012.91 1012.97 1012.97 1013.19
1024.45 1024.04 1023.86 1023.49 1023.02 1022.56 1022.13 1021.91 1021.63 1021.31 1021.21 1021.21 1020.86 1020.52 1020.24 1019.74 1018.85 1018.03 1017.44 1016.89 1016.21 1015.62 1014.93 1013.96 1013.34 1013.32 1012.86 1012.37 1012.13 1012.14 1012.05 1012.06
1024.98 1024.78 1024.37 1023.96 1023.52 1023.07 1022.63 1022.35 1022.02 1021.83 1021.73 1021.61 1021.40 1021.11 1020.80 1020.29 1019.42 1018.80 1018.35 1017.34 1016.45 1015.80 1015.44 1014.72 1014.14 1012.84 1012.48 1011.96 1011.59 1011.43 1011.36 1011.15
1025.06 1024.78 1024.52 1024.31 1023.77 1023.27 1022.96 1022.83 1022.47 1022.25 1022.07 1021.83 1021.64 1021.33 1021.14 1020.64 1019.85 1019.42 1018.79 1018.20 1017.36 1016.76 1016.04 1015.55 1014.70 1013.77 1012.63 1011.53 1011.04 1010.80 1010.53 1010.55
1025.46 1025.12 1024.94 1024.40 1023.82 1023.33 1022.90 1022.62 1022.57 1022.48 1022.40 1022.23 1021.87 1021.53 1021.35 1020.83 1020.22 1019.77 1019.14 1018.66 1018.07 1017.31 1016.66 1016.00 1015.50 1014.30 1012.95 1012.00 1010.92 1010.00 1009.69 1009.57
1025.63 1025.23 1025.17 1024.79 1024.15 1023.56 1022.99 1022.91 1022.86 1022.76 1022.70 1022.52 1022.17 1021.98 1021.48 1020.92 1020.72 1020.25 1019.66 1018.93 1018.35 1017.87 1017.38 1016.61 1015.62 1014.85 1013.57 1011.59 1010.19 1009.46 1008.60 1008.95
1026.34 1026.29 1026.14 1025.78 1025.40 1025.15 1024.89 1024.34 1023.67 1023.51 1023.18 1022.91 1022.67 1022.26 1021.79 1021.19 1021.11 1020.60 1020.17 1019.47 1018.77 1018.06 1017.59 1016.84 1016.30 1015.66 1014.77 1013.30 1010.50 1008.50 1008.11 1006.96
1026.54 1026.44 1026.27 1026.13 1025.95 1025.39 1024.88 1024.33 1024.00 1023.63 1023.46 1022.99 1022.53 1022.22 1021.94 1021.51 1021.23 1021.01 1020.53 1019.99 1019.18 1018.52 1017.82 1017.06 1016.28 1016.07 1015.74 1014.80 1012.31 1009.70 1009.02 1007.33
1026.55 1026.51 1026.37 1026.24 1026.15 1025.72 1025.39 1024.89 1024.44 1024.29 1023.84 1023.17 1022.50 1022.07 1021.70 1021.35 1021.20 1020.94 1020.66 1020.08 1019.35 1018.71 1017.97 1017.45 1016.60 1015.76 1015.51 1014.76 1013.93 1012.84 1011.23 1008.83
1026.54 1026.38 1026.27 1026.29 1026.17 1025.98 1025.60 1025.24 1024.98 1024.65 1024.11 1023.64 1023.20 1022.59 1021.92 1021.47 1021.24 1020.80 1020.31 1019.89 1019.26 1018.58 1017.96 1017.26 1016.47 1015.60 1015.06 1014.44 1013.89 1012.89 1011.73 1009.92
1026.40 1026.42 1026.43 1026.40 1026.24 1026.05 1025.76 1025.31 1024.95 1024.58 1024.03 1023.41 1023.10 1022.59 1021.97 1021.42 1021.01 1020.45 1020.02 1019.46 1018.81 1018.15 1017.49 1016.94 1015.91 1015.24 1014.78 1014.14 1013.46 1012.48 1011.22 1010.03
1026.34 1026.42 1026.29 1026.31 1026.19 1025.98 1025.57 1025.33 1025.15 1024.69 1024.07 1023.38 1022.81 1022.28 1021.79 1021.18 1020.66 1020.18 1019.57 1019.08 1018.47 1017.70 1017.02 1016.66 1015.97 1015.24 1014.26 1013.38 1012.73 1011.95 1011.04 1009.90
1026.24 1026.19 1026.11 1026.22 1026.18 1025.88 1025.70 1025.57 1025.18 1024.68 1024.25 1023.78 1023.19 1022.70 1021.88 1021.13 1020.59 1020.07 1019.44 1018.81 1018.03 1017.47 1017.10 1016.52 1015.84 1014.96 1014.05 1013.27 1012.19 1011.31 1010.50 1009.39
Thickness
5693 5694 5694 5694 5695 5697 5697 5698 5699 5698 5698 5697 5696 5696 5695 5694 5693 5691 5689 5688 5687 5687 5686 5684 5682 5680 5678 5675 5674 5674 5674 5672
5681 5682 5683 5685 5685 5686 5689 5690 5690 5691 5692 5692 5691 5690 5690 5689 5688 5686 5685 5683 5682 5682 5681 5679 5676 5675 5674 5672 5670 5669 5670 5669
5671 5671 5673 5674 5675 5676 5678 5681 5682 5682 5684 5684 5685 5684 5683 5684 5684 5683 5681 5679 5677 5678 5676 5675 5673 5671 5669 5668 5666 5668 5667 5667
5659 5659 5660 5662 5665 5665 5666 5667 5669 5670 5671 5673 5675 5676 5676 5676 5676 5675 5675 5676 5675 5673 5674 5673 5671 5671 5670 5665 5665 5665 5663 5664
5648 5648 5648 5651 5653 5656 5656 5656 5656 5658 5659 5661 5662 5664 5665 5666 5669 5669 5669 5669 5671 5670 5669 5668 5669 5669 5669 5666 5664 5663 5663 5662
5637 5638 5638 5639 5641 5644 5644 5646 5644 5644 5644 5647 5649 5652 5654 5654 5654 5657 5661 5664 5665 5665 5665 5664 5663 5664 5666 5664 5662 5662 5663 5661
5627 5628 5630 5630 5630 5631 5633 5633 5633 5632 5633 5633 5633 5635 5638 5641 5643 5646 5648 5651 5656 5660 5661 5661 5660 5659 5663 5664 5662 5660 5660 5660
5614 5616 5615 5617 5620 5619 5620 5621 5621 5622 5621 5620 5620 5620 5621 5624 5628 5633 5638 5639 5643 5646 5652 5657 5657 5655 5660 5662 5664 5662 5661 5658
5602 5603 5603 5604 5606 5607 5608 5608 5608 5608 5606 5605 5605 5605 5605 5607 5612 5617 5621 5625 5630 5634 5640 5646 5651 5650 5655 5660 5660 5661 5662 5661
5593 5592 5593 5594 5594 5595 5595 5596 5596 5594 5592 5590 5590 5590 5590 5591 5596 5599 5602 5608 5615 5620 5624 5630 5634 5644 5646 5653 5657 5658 5659 5660
5584 5584 5583 5581 5582 5583 5582 5581 5580 5580 5578 5577 5575 5575 5574 5577 5581 5583 5587 5590 5595 5599 5605 5609 5617 5625 5633 5643 5649 5653 5655 5654
5573 5572 5570 5570 5571 5570 5570 5569 5566 5564 5562 5560 5559 5559 5558 5560 5564 5567 5571 5575 5578 5582 5586 5591 5594 5604 5616 5626 5636 5646 5650 5651
5562 5563 5559 5558 5558 5559 5558 5553 5549 5545 5542 5542 5542 5541 5542 5544 5544 5547 5550 5555 5560 5564 5567 5571 5578 5583 5594 5614 5629 5636 5646 5640
5544 5541 5539 5539 5538 5535 5533 5531 5532 5529 5526 5524 5521 5521 5521 5523 5522 5524 5526 5532 5537 5542 5547 5555 5558 5560 5567 5579 5608 5627 5632 5631
5531 5528 5525 5521 5518 5517 5517 5516 5514 5513 5509 5508 5507 5506 5504 5503 5502 5500 5502 5505 5512 5516 5522 5531 5540 5541 5539 5548 5576 5599 5601 5621
5518 5513 5509 5505 5501 5499 5497 5497 5496 5492 5490 5490 5488 5486 5484 5483 5480 5478 5477 5480 5485 5490 5497 5502 5511 5522 5524 5530 5537 5548 5563 5587
5504 5500 5494 5488 5484 5482 5481 5479 5476 5472 5471 5469 5467 5466 5464 5462 5460 5460 5460 5458 5460 5466 5471 5479 5487 5496 5504 5513 5516 5526 5539 5556
5490 5485 5480 5475 5472 5468 5465 5464 5460 5457 5456 5455 5451 5449 5448 5445 5442 5440 5437 5439 5440 5443 5450 5456 5467 5474 5480 5490 5499 5508 5522 5534
5477 5472 5468 5462 5457 5452 5450 5447 5443 5440 5439 5439 5438 5435 5431 5429 5425 5421 5418 5416 5413 5418 5424 5430 5439 5448 5458 5470 5481 5491 5501 5517
5464 5459 5455 5448 5443 5440 5436 5431 5428 5426 5424 5421 5417 5414 5414 5412 5407 5402 5400 5400 5399 5399 5399 5402 5409 5420 5432 5441 5457 5472 5481 5496